Dewpoint
70 69 70 70 70 70 69 70 70 70 70 70 70 70 70 70 69 69 67 67 68 67 68 68 66 66 65 63 62 61 59 55
70 70 69 70 70 69 69 69 69 69 69 69 69 69 69 69 68 68 67 68 66 68 67 66 67 66 64 62 61 61 56 52
70 69 69 70 69 69 69 69 68 68 69 69 68 68 68 68 68 68 68 67 65 67 65 64 65 64 63 62 61 54 52 52
70 69 69 70 66 69 69 68 68 68 67 68 68 65 65 66 67 67 67 66 65 66 65 65 64 62 60 60 56 53 54 56
66 69 70 69 68 69 68 67 67 67 66 66 67 64 65 65 67 66 66 65 62 65 64 63 62 62 60 57 55 55 54 56
66 68 69 70 68 69 69 67 67 66 66 66 66 65 66 66 66 66 65 63 62 62 63 62 61 61 60 58 57 55 53 56
66 67 68 69 69 67 69 67 66 66 66 66 65 65 65 66 67 67 66 65 63 61 61 61 60 60 59 57 56 55 53 56
63 67 68 68 67 68 68 68 67 66 66 66 66 67 68 67 67 67 66 64 62 61 59 59 58 57 57 57 56 54 53 54
61 67 69 68 67 67 68 67 66 65 65 67 68 68 68 66 66 65 66 64 64 61 60 59 57 55 56 57 55 54 53 52
66 66 67 67 67 68 67 67 68 67 67 68 68 68 66 67 66 65 64 64 64 62 60 57 57 55 53 53 53 53 52 52
64 67 68 68 68 67 67 67 68 68 67 67 67 67 67 66 66 66 66 63 63 63 60 58 56 54 52 52 52 51 52 50
59 61 64 68 69 68 68 68 68 68 67 67 66 67 66 66 65 65 66 64 63 63 60 57 55 53 48 47 50 51 50 50
54 56 58 57 60 63 64 64 65 65 66 67 67 66 66 66 65 65 65 64 63 63 62 57 55 55 50 49 50 50 50 50
50 51 54 53 52 55 61 62 64 65 65 65 66 66 66 65 65 64 64 64 63 63 62 57 54 54 50 48 45 47 48 49
46 48 51 53 54 53 55 57 61 62 61 61 63 63 64 65 65 64 64 64 63 62 63 59 55 54 52 50 45 43 45 46
48 47 47 49 53 52 53 53 52 53 54 56 58 60 61 61 62 64 64 64 63 62 62 61 57 55 55 53 52 50 45 43
50 49 48 48 50 52 52 51 52 53 53 54 55 56 56 56 59 60 61 62 62 62 62 61 60 57 55 54 53 53 52 48
47 45 43 47 49 49 51 52 52 51 52 53 53 53 54 55 55 57 57 58 57 57 58 60 59 57 57 55 53 51 51 50
44 44 43 45 46 48 50 51 52 52 52 51 51 52 53 54 54 55 55 56 56 57 55 55 56 56 56 56 56 53 53 52
43 42 41 42 45 47 50 51 51 51 51 51 52 52 53 54 54 55 54 54 54 54 54 53 52 54 54 54 54 53 52 51
Lifted_Index
-5 -5 -4 -4 -4 -4 -4 -4 -3 -3 -3 -4 -4 -4 -4 -4 -4 -3 -2 -2 -2 -1 -1 -1 -1 -0 -0 -0 1 2 4 4
-5 -5 -5 -4 -4 -4 -3 -3 -3 -3 -3 -3 -4 -4 -4 -4 -3 -3 -2 -2 -1 -1 -1 -1 -1 -0 -0 -0 1 3 4 4
-5 -5 -4 -4 -4 -4 -3 -3 -3 -3 -3 -3 -3 -3 -3 -3 -3 -3 -2 -2 -1 -1 -1 -0 -0 -0 -0 -0 1 3 4 4
-5 -5 -4 -4 -4 -4 -4 -3 -3 -3 -3 -3 -3 -2 -2 -3 -3 -3 -2 -2 -1 -1 -0 0 1 1 0 0 2 3 4 4
-5 -5 -4 -4 -4 -4 -4 -3 -3 -3 -2 -2 -2 -2 -2 -3 -3 -3 -2 -2 -1 -1 -0 0 1 1 1 1 2 3 4 4
-5 -4 -4 -4 -4 -4 -4 -3 -3 -3 -2 -2 -2 -2 -3 -3 -3 -3 -2 -2 -1 -1 -0 0 1 1 1 2 2 3 4 4
-4 -4 -4 -4 -3 -3 -3 -3 -3 -3 -2 -2 -2 -2 -3 -3 -3 -3 -3 -2 -2 -1 -1 -0 0 0 1 2 2 3 4 4
-3 -4 -4 -3 -3 -2 -3 -2 -2 -3 -2 -2 -2 -3 -3 -3 -3 -3 -3 -2 -2 -1 -1 -0 0 1 1 1 2 3 4 4
-3 -3 -3 -3 -2 -2 -2 -2 -2 -2 -2 -3 -3 -3 -3 -3 -3 -3 -3 -2 -2 -2 -1 -0 0 1 1 2 2 3 4 4
-3 -3 -3 -3 -2 -2 -2 -2 -2 -2 -2 -3 -3 -3 -3 -3 -2 -2 -2 -2 -2 -2 -1 -1 0 1 2 2 3 3 4 4
-2 -2 -2 -3 -3 -3 -2 -2 -2 -2 -2 -2 -2 -3 -3 -3 -2 -2 -2 -2 -2 -2 -1 -1 -0 1 2 2 3 4 4 4
1 1 -1 -2 -2 -3 -3 -3 -2 -2 -2 -2 -2 -2 -3 -3 -3 -3 -2 -2 -2 -2 -1 -1 -0 1 2 2 4 4 5 5
4 4 3 1 0 -1 -1 -2 -2 -2 -2 -3 -2 -2 -2 -2 -2 -3 -2 -2 -2 -2 -2 -1 -1 -0 1 2 3 5 5 6
6 6 5 4 4 2 1 0 -1 -2 -2 -2 -2 -2 -2 -2 -2 -2 -2 -2 -2 -2 -2 -1 -1 -1 -0 1 2 3 5 5
7 7 6 6 5 4 4 2 1 -0 -0 -0 -1 -1 -1 -2 -2 -2 -2 -2 -2 -2 -2 -1 -1 -1 -1 -0 0 1 3 4
8 8 7 7 6 5 5 4 3 2 2 2 1 0 0 -0 -1 -1 -2 -2 -2 -2 -1 -1 -1 -1 -1 -1 -0 0 1 2
8 8 8 7 7 6 5 5 4 4 4 3 3 2 2 2 1 0 -0 -1 -1 -1 -1 -1 -0 -0 -0 -0 -0 0 1 1
9 9 9 8 8 7 6 5 5 5 4 4 3 3 3 3 2 2 2 1 1 1 1 1 1 1 1 1 1 1 1 1
10 10 9 9 8 8 7 6 5 4 4 4 3 3 3 3 3 3 3 3 3 3 3 3 3 3 3 2 2 2 2 2
11 11 10 10 9 8 7 5 4 4 3 3 3 3 3 3 3 3 4 4 4 4 5 5 5 5 4 4 3 3 3 3